Time,TemperatureF,DewpointF,PressureIn,WindDirection,WindDirectionDegrees,WindSpeedMPH,WindSpeedGustMPH,Humidity,HourlyPrecipIn,Conditions,Clouds,dailyrainin,SoftwareType,DateUTC
2013-07-27 00:01:00,66.5,65.6,30.00,SW,225,0.0,0.0,97,0.15,RA,,0.00,WeatherDisplay:10.37,2013-07-27 04:01:00,
2013-07-27 00:02:00,66.5,65.6,30.00,SW,224,0.0,0.0,97,0.14,RA,,0.00,WeatherDisplay:10.37,2013-07-27 04:02:00,
2013-07-27 00:07:00,66.6,65.7,30.00,SW,225,0.0,0.0,97,0.14,RA,,0.00,WeatherDisplay:10.37,2013-07-27 04:07:00,
2013-07-27 00:12:00,66.6,65.7,30.00,SW,224,0.0,0.0,97,0.12,,,0.00,WeatherDisplay:10.37,2013-07-27 04:12:00,
2013-07-27 00:17:00,66.7,65.8,30.00,SW,224,1.2,1.2,97,0.11,,,0.00,WeatherDisplay:10.37,2013-07-27 04:17:00,
2013-07-27 00:22:00,66.8,65.9,30.00,SSW,194,2.3,2.3,97,0.07,,,0.00,WeatherDisplay:10.37,2013-07-27 04:22:00,
2013-07-27 00:27:00,66.8,65.9,29.99,SE,141,1.2,1.2,97,0.04,,,0.00,WeatherDisplay:10.37,2013-07-27 04:27:00,
2013-07-27 00:32:00,66.8,65.9,29.99,ESE,118,1.2,1.2,97,0.02,,,0.00,WeatherDisplay:10.37,2013-07-27 04:32:00,
2013-07-27 00:37:00,66.7,65.8,29.99,ESE,119,1.2,0.0,97,0.01,,,0.00,WeatherDisplay:10.37,2013-07-27 04:37:00,
2013-07-27 00:42:00,66.6,65.7,29.99,ESE,118,1.2,0.0,97,0.00,,,0.00,WeatherDisplay:10.37,2013-07-27 04:42:00,
2013-07-27 00:47:00,66.6,65.7,29.99,ESE,118,0.0,0.0,97,0.00,,,0.00,WeatherDisplay:10.37,2013-07-27 04:47:00,
2013-07-27 00:52:00,66.6,65.7,29.99,SE,127,1.2,1.2,97,0.00,,,0.00,WeatherDisplay:10.37,2013-07-27 04:52:00,
2013-07-27 00:57:00,66.5,65.6,29.99,SE,127,0.0,0.0,97,0.00,,,0.00,WeatherDisplay:10.37,2013-07-27 04:57:00,
2013-07-27 01:02:00,66.4,65.5,29.99,SE,127,0.0,0.0,97,0.00,,,0.00,WeatherDisplay:10.37,2013-07-27 05:02:00,
2013-07-27 01:07:00,66.5,65.6,29.99,SE,127,0.0,0.0,97,0.00,,,0.00,WeatherDisplay:10.37,2013-07-27 05:07:00,
2013-07-27 01:12:00,66.4,65.5,29.99,SE,127,0.0,0.0,97,0.00,,,0.00,WeatherDisplay:10.37,2013-07-27 05:12:00,
2013-07-27 01:17:00,66.4,65.5,29.99,SE,127,0.0,0.0,97,0.00,,,0.00,WeatherDisplay:10.37,2013-07-27 05:17:00,
2013-07-27 01:22:00,66.5,65.6,29.99,SE,127,0.0,0.0,97,0.00,,,0.00,WeatherDisplay:10.37,2013-07-27 05:22:00,
2013-07-27 01:27:00,66.5,65.9,29.98,SE,127,0.0,0.0,98,0.00,,,0.00,WeatherDisplay:10.37,2013-07-27 05:27:00,
2013-07-27 01:32:00,66.6,66.0,29.98,SE,127,1.2,0.0,98,0.00,,,0.00,WeatherDisplay:10.37,2013-07-27 05:32:00,
2013-07-27 01:37:00,66.6,65.7,29.98,SE,129,1.2,0.0,97,0.00,,,0.00,WeatherDisplay:10.37,2013-07-27 05:37:00,
2013-07-27 01:42:00,66.6,65.7,29.98,SE,128,0.0,0.0,97,0.00,,,0.00,WeatherDisplay:10.37,2013-07-27 05:42:00,
2013-07-27 01:47:00,66.7,66.1,29.98,SSE,152,1.2,1.2,98,0.00,,,0.00,WeatherDisplay:10.37,2013-07-27 05:47:00,
2013-07-27 01:52:00,66.7,66.1,29.97,SSE,152,0.0,0.1,98,0.00,,,0.00,WeatherDisplay:10.37,2013-07-27 05:52:00,
2013-07-27 01:57:00,66.7,66.1,29.97,SSE,152,0.0,0.0,98,0.00,,,0.00,WeatherDisplay:10.37,2013-07-27 05:57:00,
2013-07-27 02:02:00,66.7,66.1,29.97,SSE,152,1.2,1.2,98,0.00,,,0.00,WeatherDisplay:10.37,2013-07-27 06:02:00,
2013-07-27 02:07:00,66.7,66.1,29.96,SSE,153,1.2,1.2,98,0.00,,,0.00,WeatherDisplay:10.37,2013-07-27 06:07:00,
2013-07-27 02:12:00,66.7,66.1,29.96,SSE,152,1.2,0.0,98,0.00,,,0.00,WeatherDisplay:10.37,2013-07-27 06:12:00,
2013-07-27 02:17:00,66.8,66.2,29.96,SSE,152,1.2,1.2,98,0.00,,,0.00,WeatherDisplay:10.37,2013-07-27 06:17:00,
2013-07-27 02:22:00,66.8,66.2,29.96,SE,138,0.0,0.0,98,0.00,,,0.00,WeatherDisplay:10.37,2013-07-27 06:22:00,
2013-07-27 02:27:00,66.8,66.2,29.96,SE,138,0.0,0.0,98,0.00,,,0.00,WeatherDisplay:10.37,2013-07-27 06:27:00,
2013-07-27 02:32:00,66.7,66.1,29.96,SE,139,0.0,0.0,98,0.00,,,0.00,WeatherDisplay:10.37,2013-07-27 06:32:00,
2013-07-27 02:37:00,66.7,66.1,29.96,SE,139,0.0,0.0,98,0.00,,,0.00,WeatherDisplay:10.37,2013-07-27 06:37:00,
2013-07-27 02:42:00,66.7,66.1,29.96,SE,139,1.2,0.0,98,0.00,,,0.00,WeatherDisplay:10.37,2013-07-27 06:42:00,
2013-07-27 02:47:00,66.6,65.7,29.96,SE,139,0.0,0.0,97,0.00,,,0.00,WeatherDisplay:10.37,2013-07-27 06:47:00,
2013-07-27 02:52:00,66.5,65.6,29.96,SE,139,0.0,0.0,97,0.00,,,0.00,WeatherDisplay:10.37,2013-07-27 06:52:00,
2013-07-27 02:57:00,66.3,65.4,29.96,SE,139,0.0,0.0,97,0.00,,,0.00,WeatherDisplay:10.37,2013-07-27 06:57:00,
2013-07-27 03:02:00,66.1,65.2,29.96,SE,138,0.0,0.0,97,0.00,,,0.00,WeatherDisplay:10.37,2013-07-27 07:02:00,
2013-07-27 03:07:00,66.0,65.4,29.95,SE,139,0.0,0.0,98,0.00,,,0.00,WeatherDisplay:10.37,2013-07-27 07:07:00,
2013-07-27 03:12:00,65.9,65.3,29.95,SE,138,0.0,0.0,98,0.00,,,0.00,WeatherDisplay:10.37,2013-07-27 07:12:00,
2013-07-27 03:17:00,65.9,65.3,29.95,SE,138,0.0,0.0,98,0.00,,,0.00,WeatherDisplay:10.37,2013-07-27 07:17:00,
2013-07-27 03:22:00,65.8,65.2,29.95,SE,138,0.0,0.0,98,0.00,,,0.00,WeatherDisplay:10.37,2013-07-27 07:22:00,
2013-07-27 03:31:00,65.7,65.1,29.94,SE,138,0.0,0.0,98,0.00,CLR,,0.00,WeatherDisplay:10.37,2013-07-27 07:31:00,
2013-07-27 03:36:00,65.7,65.1,29.94,SE,139,0.0,0.0,98,0.00,,,0.00,WeatherDisplay:10.37,2013-07-27 07:36:00,
2013-07-27 03:42:00,65.8,65.2,29.94,SE,145,0.0,0.0,98,0.00,,,0.00,WeatherDisplay:10.37,2013-07-27 07:42:00,
2013-07-27 03:47:00,65.9,65.3,29.94,SE,145,0.0,0.0,98,0.00,,,0.00,WeatherDisplay:10.37,2013-07-27 07:47:00,
2013-07-27 03:52:00,65.9,65.3,29.94,SE,145,0.0,0.0,98,0.00,,,0.00,WeatherDisplay:10.37,2013-07-27 07:52:00,
2013-07-27 03:57:00,65.9,65.3,29.93,SSE,147,0.0,0.0,98,0.00,,,0.00,WeatherDisplay:10.37,2013-07-27 07:57:00,
2013-07-27 04:02:00,66.0,65.4,29.93,SE,145,0.0,0.0,98,0.00,,,0.00,WeatherDisplay:10.37,2013-07-27 08:02:00,
2013-07-27 04:07:00,66.0,65.4,29.93,SE,146,0.0,0.0,98,0.00,,,0.00,WeatherDisplay:10.37,2013-07-27 08:07:00,
2013-07-27 04:12:00,66.0,65.4,29.93,SSE,147,0.0,0.0,98,0.00,,,0.00,WeatherDisplay:10.37,2013-07-27 08:12:00,
2013-07-27 04:17:00,66.0,65.4,29.93,SE,146,0.0,0.0,98,0.00,,,0.00,WeatherDisplay:10.37,2013-07-27 08:17:00,
2013-07-27 04:22:00,66.0,65.4,29.94,SE,145,0.0,0.0,98,0.00,,,0.00,WeatherDisplay:10.37,2013-07-27 08:22:00,
2013-07-27 04:27:00,66.0,65.4,29.93,SSE,147,0.0,0.0,98,0.00,,,0.00,WeatherDisplay:10.37,2013-07-27 08:27:00,
2013-07-27 04:32:00,66.0,65.4,29.94,SE,146,0.0,0.0,98,0.00,,,0.00,WeatherDisplay:10.37,2013-07-27 08:32:00,
2013-07-27 04:37:00,66.1,65.5,29.93,SE,146,0.0,0.0,98,0.00,,,0.00,WeatherDisplay:10.37,2013-07-27 08:37:00,
2013-07-27 04:42:00,66.1,65.5,29.93,SE,145,0.0,0.0,98,0.00,,,0.00,WeatherDisplay:10.37,2013-07-27 08:42:00,
2013-07-27 04:47:00,66.1,65.5,29.93,SSE,147,0.0,0.0,98,0.00,,,0.00,WeatherDisplay:10.37,2013-07-27 08:47:00,
2013-07-27 04:52:00,66.2,65.6,29.93,SE,145,0.0,0.0,98,0.00,,,0.00,WeatherDisplay:10.37,2013-07-27 08:52:00,
2013-07-27 04:57:00,66.3,65.7,29.93,SE,145,0.0,0.0,98,0.00,,,0.00,WeatherDisplay:10.37,2013-07-27 08:57:00,
2013-07-27 05:02:00,66.3,65.7,29.93,SE,146,1.2,1.2,98,0.00,,,0.00,WeatherDisplay:10.37,2013-07-27 09:02:00,
2013-07-27 05:07:00,66.3,65.7,29.93,SE,145,0.0,0.0,98,0.00,,,0.00,WeatherDisplay:10.37,2013-07-27 09:07:00,
2013-07-27 05:12:00,66.4,65.8,29.93,SE,134,1.2,1.2,98,0.00,,,0.00,WeatherDisplay:10.37,2013-07-27 09:12:00,
2013-07-27 05:17:00,66.4,65.8,29.92,SSE,148,1.2,1.2,98,0.00,,,0.00,WeatherDisplay:10.37,2013-07-27 09:17:00,
2013-07-27 05:22:00,66.4,65.8,29.92,SSE,160,2.3,2.3,98,0.00,,,0.00,WeatherDisplay:10.37,2013-07-27 09:22:00,
2013-07-27 05:27:00,66.5,65.9,29.92,SSE,160,0.0,0.4,98,0.00,,,0.00,WeatherDisplay:10.37,2013-07-27 09:27:00,
2013-07-27 05:32:00,66.5,65.9,29.92,SSE,155,0.0,0.0,98,0.00,,,0.00,WeatherDisplay:10.37,2013-07-27 09:32:00,
2013-07-27 05:37:00,66.4,65.8,29.92,SSE,155,0.0,0.0,98,0.00,,,0.00,WeatherDisplay:10.37,2013-07-27 09:37:00,
2013-07-27 05:43:00,66.4,65.8,29.92,SSE,155,0.0,0.0,98,0.00,,,0.00,WeatherDisplay:10.37,2013-07-27 09:43:00,
2013-07-27 05:48:00,66.4,65.8,29.92,SSE,155,0.0,0.0,98,0.00,,,0.00,WeatherDisplay:10.37,2013-07-27 09:48:00,
2013-07-27 05:53:00,66.3,65.7,29.92,SSE,155,0.0,0.0,98,0.00,,,0.00,WeatherDisplay:10.37,2013-07-27 09:53:00,
2013-07-27 05:58:00,66.4,65.8,29.92,SSE,155,0.0,0.0,98,0.00,,,0.00,WeatherDisplay:10.37,2013-07-27 09:58:00,
2013-07-27 06:03:00,66.4,65.8,29.93,SSE,155,0.0,0.0,98,0.00,,,0.00,WeatherDisplay:10.37,2013-07-27 10:03:00,
2013-07-27 06:08:00,66.4,65.8,29.93,SSE,155,0.0,0.0,98,0.00,CLR,,0.00,WeatherDisplay:10.37,2013-07-27 10:08:00,
2013-07-27 06:13:00,66.5,65.9,29.93,SSE,155,0.0,0.0,98,0.00,CLR,,0.00,WeatherDisplay:10.37,2013-07-27 10:13:00,
2013-07-27 06:18:00,66.5,65.9,29.93,SSE,155,0.0,0.0,98,0.00,CLR,,0.00,WeatherDisplay:10.37,2013-07-27 10:18:00,
2013-07-27 06:23:00,66.6,66.0,29.92,SSE,155,0.0,0.0,98,0.00,CLR,,0.00,WeatherDisplay:10.37,2013-07-27 10:23:00,
2013-07-27 06:28:00,66.6,66.0,29.93,SSE,156,1.2,1.2,98,0.00,CLR,,0.00,WeatherDisplay:10.37,2013-07-27 10:28:00,
2013-07-27 06:33:00,66.6,66.0,29.93,SSE,156,0.0,0.0,98,0.00,CLR,,0.00,WeatherDisplay:10.37,2013-07-27 10:33:00,
2013-07-27 06:38:00,66.5,65.9,29.93,SSE,156,0.0,0.0,98,0.00,CLR,,0.00,WeatherDisplay:10.37,2013-07-27 10:38:00,
2013-07-27 06:43:00,66.5,65.9,29.93,SSE,158,1.2,0.0,98,0.00,CLR,,0.00,WeatherDisplay:10.37,2013-07-27 10:43:00,
2013-07-27 06:48:00,66.4,65.8,29.93,SSE,158,0.0,0.0,98,0.00,CLR,,0.00,WeatherDisplay:10.37,2013-07-27 10:48:00,
2013-07-27 06:53:00,66.4,65.8,29.93,SSE,158,0.0,0.0,98,0.00,CLR,,0.00,WeatherDisplay:10.37,2013-07-27 10:53:00,
2013-07-27 06:58:00,66.5,65.9,29.93,SSE,158,0.0,0.0,98,0.00,CLR,,0.00,WeatherDisplay:10.37,2013-07-27 10:58:00,
2013-07-27 07:03:00,66.6,66.0,29.94,SSE,158,0.0,0.0,98,0.00,CLR,,0.00,WeatherDisplay:10.37,2013-07-27 11:03:00,
2013-07-27 07:08:00,66.6,66.0,29.93,SSE,158,0.0,0.0,98,0.00,CLR,,0.00,WeatherDisplay:10.37,2013-07-27 11:08:00,
2013-07-27 07:13:00,66.6,66.0,29.93,SSE,158,0.0,0.0,98,0.00,CLR,,0.00,WeatherDisplay:10.37,2013-07-27 11:13:00,
2013-07-27 07:18:00,66.7,66.1,29.93,SSE,163,1.2,1.2,98,0.00,CLR,,0.00,WeatherDisplay:10.37,2013-07-27 11:18:00,
2013-07-27 07:23:00,66.7,66.1,29.93,SSE,163,1.2,0.0,98,0.00,CLR,,0.00,WeatherDisplay:10.37,2013-07-27 11:23:00,
2013-07-27 07:28:00,66.8,66.2,29.93,SSE,163,0.0,0.0,98,0.00,CLR,,0.00,WeatherDisplay:10.37,2013-07-27 11:28:00,
2013-07-27 07:33:00,66.9,66.3,29.93,SSE,163,0.0,0.0,98,0.00,CLR,,0.00,WeatherDisplay:10.37,2013-07-27 11:33:00,
2013-07-27 07:38:00,66.9,66.3,29.93,SSE,163,1.2,1.2,98,0.00,CLR,,0.00,WeatherDisplay:10.37,2013-07-27 11:38:00,
2013-07-27 07:43:00,66.9,66.3,29.93,ESE,115,1.2,1.2,98,0.00,CLR,,0.00,WeatherDisplay:10.37,2013-07-27 11:43:00,
2013-07-27 07:48:00,66.9,66.3,29.94,ESE,115,1.2,1.2,98,0.00,CLR,,0.00,WeatherDisplay:10.37,2013-07-27 11:48:00,
2013-07-27 07:53:00,67.0,66.4,29.93,ESE,115,1.2,1.2,98,0.00,CLR,,0.00,WeatherDisplay:10.37,2013-07-27 11:53:00,
2013-07-27 07:58:00,67.1,66.5,29.93,ESE,115,1.2,1.2,98,0.00,CLR,,0.00,WeatherDisplay:10.37,2013-07-27 11:58:00,
2013-07-27 08:03:00,67.2,66.6,29.94,ESE,123,0.0,0.0,98,0.00,CLR,,0.00,WeatherDisplay:10.37,2013-07-27 12:03:00,
2013-07-27 08:08:00,67.3,66.7,29.93,ESE,117,1.2,1.2,98,0.00,CLR,,0.00,WeatherDisplay:10.37,2013-07-27 12:08:00,
2013-07-27 08:13:00,67.5,66.9,29.93,ESE,115,1.2,0.0,98,0.00,CLR,,0.00,WeatherDisplay:10.37,2013-07-27 12:13:00,
2013-07-27 08:18:00,67.6,67.0,29.93,ESE,107,1.2,0.0,98,0.00,CLR,,0.00,WeatherDisplay:10.37,2013-07-27 12:18:00,
2013-07-27 08:23:00,67.7,67.1,29.93,ESE,108,0.0,0.0,98,0.00,CLR,,0.00,WeatherDisplay:10.37,2013-07-27 12:23:00,
2013-07-27 08:28:00,67.7,66.8,29.93,ESE,107,0.0,0.0,97,0.00,CLR,,0.00,WeatherDisplay:10.37,2013-07-27 12:28:00,
2013-07-27 08:33:00,67.9,67.0,29.93,NW,322,1.2,1.2,97,0.00,CLR,,0.00,WeatherDisplay:10.37,2013-07-27 12:33:00,
2013-07-27 08:38:00,68.0,67.1,29.93,ENE,59,2.3,2.3,97,0.00,CLR,,0.00,WeatherDisplay:10.37,2013-07-27 12:38:00,
2013-07-27 08:43:00,68.2,67.3,29.93,SSE,168,1.2,1.2,97,0.00,CLR,,0.00,WeatherDisplay:10.37,2013-07-27 12:43:00,
2013-07-27 08:48:00,68.4,67.5,29.93,SSE,168,0.0,0.0,97,0.00,CLR,,0.00,WeatherDisplay:10.37,2013-07-27 12:48:00,
2013-07-27 08:53:00,68.6,67.4,29.93,SSE,168,0.0,0.0,96,0.00,CLR,,0.00,WeatherDisplay:10.37,2013-07-27 12:53:00,
2013-07-27 08:58:00,68.5,67.0,29.93,North,349,0.0,0.0,95,0.00,CLR,,0.00,WeatherDisplay:10.37,2013-07-27 12:58:00,
2013-07-27 09:03:00,68.4,66.9,29.93,NNW,348,2.0,2.0,95,0.00,CLR,,0.00,WeatherDisplay:10.37,2013-07-27 13:03:00,
2013-07-27 09:08:00,68.5,67.0,29.92,East,95,2.3,2.3,95,0.00,CLR,,0.00,WeatherDisplay:10.37,2013-07-27 13:08:00,
2013-07-27 09:13:00,68.6,67.1,29.93,East,94,1.2,0.0,95,0.00,CLR,,0.00,WeatherDisplay:10.37,2013-07-27 13:13:00,
2013-07-27 09:18:00,68.6,67.1,29.93,WNW,286,0.0,0.1,95,0.00,CLR,,0.00,WeatherDisplay:10.37,2013-07-27 13:18:00,
2013-07-27 09:23:00,68.6,67.1,29.93,WNW,286,0.0,0.0,95,0.00,CLR,,0.00,WeatherDisplay:10.37,2013-07-27 13:23:00,
2013-07-27 09:28:00,68.5,67.0,29.93,WNW,286,0.0,0.0,95,0.03,RA,,0.03,WeatherDisplay:10.37,2013-07-27 13:28:00,
2013-07-27 09:33:00,68.5,67.3,29.93,WNW,286,0.0,0.0,96,0.06,RA,,0.06,WeatherDisplay:10.37,2013-07-27 13:33:00,
2013-07-27 09:38:00,68.4,67.2,29.93,WNW,285,0.0,0.0,96,0.09,RA,,0.09,WeatherDisplay:10.37,2013-07-27 13:38:00,
2013-07-27 09:43:00,68.3,67.1,29.93,WNW,287,0.0,0.0,96,0.10,RA,,0.10,WeatherDisplay:10.37,2013-07-27 13:43:00,
2013-07-27 09:48:00,68.3,67.1,29.93,WNW,285,0.0,0.0,96,0.11,RA,,0.11,WeatherDisplay:10.37,2013-07-27 13:48:00,
2013-07-27 09:53:00,68.3,67.4,29.93,West,274,0.0,0.3,97,0.11,RA,,0.11,WeatherDisplay:10.37,2013-07-27 13:53:00,
2013-07-27 09:58:00,68.5,67.6,29.93,West,272,1.2,1.2,97,0.12,RA,,0.12,WeatherDisplay:10.37,2013-07-27 13:58:00,
2013-07-27 10:03:00,68.6,67.7,29.94,SSW,203,0.0,0.0,97,0.12,RA,,0.12,WeatherDisplay:10.37,2013-07-27 14:03:00,
2013-07-27 10:08:00,68.5,67.3,29.94,SSW,208,2.3,2.3,96,0.12,CLR,,0.12,WeatherDisplay:10.37,2013-07-27 14:08:00,
2013-07-27 10:13:00,68.4,67.2,29.94,South,175,1.2,1.2,96,0.12,CLR,,0.12,WeatherDisplay:10.37,2013-07-27 14:13:00,
2013-07-27 10:18:00,68.3,67.1,29.94,South,175,0.0,0.0,96,0.12,CLR,,0.12,WeatherDisplay:10.37,2013-07-27 14:18:00,
2013-07-27 10:23:00,68.4,67.2,29.94,South,177,0.0,0.0,96,0.12,CLR,,0.12,WeatherDisplay:10.37,2013-07-27 14:23:00,
2013-07-27 10:28:00,68.4,67.2,29.94,South,177,1.2,1.2,96,0.09,CLR,,0.12,WeatherDisplay:10.37,2013-07-27 14:28:00,
2013-07-27 10:33:00,68.4,67.2,29.94,South,177,0.0,0.0,96,0.06,CLR,,0.12,WeatherDisplay:10.37,2013-07-27 14:33:00,
2013-07-27 10:38:00,68.4,66.9,29.94,South,178,0.0,0.0,95,0.03,CLR,,0.12,WeatherDisplay:10.37,2013-07-27 14:38:00,
2013-07-27 10:43:00,68.5,67.0,29.94,WSW,238,1.2,1.2,95,0.02,CLR,,0.12,WeatherDisplay:10.37,2013-07-27 14:43:00,
2013-07-27 10:48:00,68.8,67.3,29.94,WSW,238,1.2,0.0,95,0.01,CLR,,0.12,WeatherDisplay:10.37,2013-07-27 14:48:00,
2013-07-27 10:53:00,69.1,67.9,29.94,WSW,238,0.0,0.0,96,0.01,CLR,,0.12,WeatherDisplay:10.37,2013-07-27 14:53:00,
2013-07-27 10:58:00,69.3,67.8,29.94,WNW,283,2.0,2.0,95,0.00,CLR,,0.12,WeatherDisplay:10.37,2013-07-27 14:58:00,
2013-07-27 11:04:00,69.6,68.4,29.94,WNW,283,0.0,0.0,96,0.00,CLR,,0.12,WeatherDisplay:10.37,2013-07-27 15:04:00,
2013-07-27 11:09:00,69.9,68.4,29.94,WNW,284,0.0,0.0,95,0.00,CLR,,0.12,WeatherDisplay:10.37,2013-07-27 15:09:00,
2013-07-27 11:14:00,70.1,68.3,29.94,West,271,0.0,0.0,94,0.00,CLR,,0.12,WeatherDisplay:10.37,2013-07-27 15:14:00,
2013-07-27 11:19:00,70.2,68.4,29.95,West,271,0.0,0.0,94,0.00,CLR,,0.12,WeatherDisplay:10.37,2013-07-27 15:19:00,
2013-07-27 11:24:00,70.3,67.9,29.94,WSW,247,2.3,2.3,92,0.00,CLR,,0.12,WeatherDisplay:10.37,2013-07-27 15:24:00,
2013-07-27 11:29:00,70.5,68.1,29.94,WSW,248,1.2,1.2,92,0.00,CLR,,0.12,WeatherDisplay:10.37,2013-07-27 15:29:00,
2013-07-27 11:34:00,71.3,69.2,29.94,WSW,247,1.0,1.0,93,0.00,CLR,,0.12,WeatherDisplay:10.37,2013-07-27 15:34:00,
2013-07-27 11:39:00,71.6,68.8,29.94,SW,233,1.2,1.2,91,0.00,CLR,,0.12,WeatherDisplay:10.37,2013-07-27 15:39:00,
2013-07-27 11:44:00,71.7,68.9,29.94,WNW,300,2.3,2.3,91,0.00,CLR,,0.12,WeatherDisplay:10.37,2013-07-27 15:44:00,
2013-07-27 11:49:00,72.0,69.9,29.94,WNW,302,0.0,0.0,93,0.00,CLR,,0.12,WeatherDisplay:10.37,2013-07-27 15:49:00,
2013-07-27 11:54:00,72.5,69.4,29.94,West,262,1.2,1.2,90,0.00,CLR,,0.12,WeatherDisplay:10.37,2013-07-27 15:54:00,
2013-07-27 11:59:00,72.8,69.4,29.94,WSW,241,0.0,0.0,89,0.00,CLR,,0.12,WeatherDisplay:10.37,2013-07-27 15:59:00,
2013-07-27 12:04:00,73.5,70.1,29.94,SW,226,1.2,1.2,89,0.00,CLR,,0.12,WeatherDisplay:10.37,2013-07-27 16:04:00,
2013-07-27 12:09:00,73.8,69.3,29.93,WSW,257,1.2,1.2,86,0.00,CLR,,0.12,WeatherDisplay:10.37,2013-07-27 16:09:00,
2013-07-27 12:14:00,74.6,69.8,29.93,SSE,151,2.3,2.3,85,0.00,CLR,,0.12,WeatherDisplay:10.37,2013-07-27 16:14:00,
2013-07-27 12:19:00,75.3,70.1,29.93,West,274,1.2,1.2,84,0.00,CLR,,0.12,WeatherDisplay:10.37,2013-07-27 16:19:00,
2013-07-27 12:24:00,75.7,70.5,29.93,West,270,2.3,2.3,84,0.00,CLR,,0.12,WeatherDisplay:10.37,2013-07-27 16:24:00,
2013-07-27 12:29:00,75.7,70.2,29.93,West,266,2.3,2.3,83,0.00,CLR,,0.12,WeatherDisplay:10.37,2013-07-27 16:29:00,
2013-07-27 12:34:00,75.5,70.0,29.92,East,94,3.5,3.5,83,0.00,CLR,,0.12,WeatherDisplay:10.37,2013-07-27 16:34:00,
2013-07-27 12:39:00,75.1,69.2,29.92,WSW,248,2.3,2.3,82,0.00,CLR,,0.12,WeatherDisplay:10.37,2013-07-27 16:39:00,
2013-07-27 12:44:00,75.0,69.1,29.92,WNW,295,2.0,2.0,82,0.00,CLR,,0.12,WeatherDisplay:10.37,2013-07-27 16:44:00,
2013-07-27 12:49:00,74.9,69.4,29.92,West,265,1.2,1.2,83,0.00,CLR,,0.12,WeatherDisplay:10.37,2013-07-27 16:49:00,
2013-07-27 12:54:00,75.5,70.3,29.92,SSE,156,2.3,2.3,84,0.00,CLR,,0.12,WeatherDisplay:10.37,2013-07-27 16:54:00,
2013-07-27 12:59:00,75.3,69.4,29.92,WSW,239,4.0,4.0,82,0.00,CLR,,0.12,WeatherDisplay:10.37,2013-07-27 16:59:00,
2013-07-27 13:04:00,75.2,69.3,29.92,WSW,249,5.8,5.8,82,0.00,CLR,,0.12,WeatherDisplay:10.37,2013-07-27 17:04:00,
2013-07-27 13:09:00,75.1,69.6,29.91,WSW,248,1.2,1.2,83,0.00,CLR,,0.12,WeatherDisplay:10.37,2013-07-27 17:09:00,
2013-07-27 13:14:00,75.3,70.1,29.91,West,276,1.0,1.0,84,0.00,CLR,,0.12,WeatherDisplay:10.37,2013-07-27 17:14:00,
2013-07-27 13:19:00,75.6,70.1,29.91,West,262,2.3,2.3,83,0.00,CLR,,0.12,WeatherDisplay:10.37,2013-07-27 17:19:00,
2013-07-27 13:24:00,75.6,68.6,29.91,West,267,3.5,3.5,79,0.00,CLR,,0.12,WeatherDisplay:10.37,2013-07-27 17:24:00,
2013-07-27 13:29:00,75.5,68.9,29.90,SSE,162,4.6,4.6,80,0.00,CLR,,0.12,WeatherDisplay:10.37,2013-07-27 17:29:00,
2013-07-27 13:34:00,75.1,68.5,29.90,West,259,1.2,1.2,80,0.00,CLR,,0.12,WeatherDisplay:10.37,2013-07-27 17:34:00,
2013-07-27 13:39:00,75.1,68.9,29.90,WSW,243,1.2,1.2,81,0.00,CLR,,0.12,WeatherDisplay:10.37,2013-07-27 17:39:00,
2013-07-27 13:44:00,75.1,69.6,29.90,WSW,257,1.2,1.2,83,0.00,CLR,,0.12,WeatherDisplay:10.37,2013-07-27 17:44:00,
2013-07-27 13:49:00,75.0,69.1,29.90,South,172,2.3,2.3,82,0.00,CLR,,0.12,WeatherDisplay:10.37,2013-07-27 17:49:00,
2013-07-27 13:54:00,74.8,69.3,29.90,WSW,251,2.3,2.3,83,0.00,CLR,,0.12,WeatherDisplay:10.37,2013-07-27 17:54:00,
2013-07-27 13:59:00,74.8,68.2,29.90,NNE,22,0.0,0.0,80,0.00,CLR,,0.12,WeatherDisplay:10.37,2013-07-27 17:59:00,
2013-07-27 14:04:00,75.8,70.3,29.89,SW,217,1.2,1.2,83,0.00,,,0.12,WeatherDisplay:10.37,2013-07-27 18:04:00,
2013-07-27 14:09:00,76.6,70.3,29.89,SE,129,2.3,2.3,81,0.00,,,0.12,WeatherDisplay:10.37,2013-07-27 18:09:00,
2013-07-27 14:14:00,77.3,69.5,29.89,SW,226,1.2,1.2,77,0.00,,,0.12,WeatherDisplay:10.37,2013-07-27 18:14:00,
2013-07-27 14:19:00,78.0,69.8,29.89,West,263,2.3,2.3,76,0.00,,,0.12,WeatherDisplay:10.37,2013-07-27 18:19:00,
2013-07-27 14:24:00,77.7,68.7,29.89,West,264,3.5,3.5,74,0.00,,,0.12,WeatherDisplay:10.37,2013-07-27 18:24:00,
2013-07-27 14:29:00,77.5,68.9,29.88,West,262,4.6,4.6,75,0.00,,,0.12,WeatherDisplay:10.37,2013-07-27 18:29:00,
2013-07-27 14:34:00,77.5,69.3,29.88,SE,134,2.3,2.3,76,0.00,,,0.12,WeatherDisplay:10.37,2013-07-27 18:34:00,
2013-07-27 14:39:00,77.4,68.5,29.88,ESE,105,3.0,3.0,74,0.00,,,0.12,WeatherDisplay:10.37,2013-07-27 18:39:00,
2013-07-27 14:44:00,76.9,68.8,29.88,West,276,3.5,3.5,76,0.00,,,0.12,WeatherDisplay:10.37,2013-07-27 18:44:00,
2013-07-27 14:49:00,76.6,68.1,29.88,West,260,5.8,5.8,75,0.00,,,0.12,WeatherDisplay:10.37,2013-07-27 18:49:00,
2013-07-27 14:54:00,76.3,68.6,29.88,WSW,248,3.5,3.5,77,0.00,,,0.12,WeatherDisplay:10.37,2013-07-27 18:54:00,
2013-07-27 14:59:00,76.4,69.0,29.87,WNW,283,3.5,3.5,78,0.00,,,0.12,WeatherDisplay:10.37,2013-07-27 18:59:00,
2013-07-27 15:04:00,76.6,69.6,29.87,WSW,257,3.0,3.0,79,0.00,,,0.12,WeatherDisplay:10.37,2013-07-27 19:04:00,
2013-07-27 15:09:00,76.5,69.1,29.88,West,260,2.3,2.3,78,0.00,,,0.12,WeatherDisplay:10.37,2013-07-27 19:09:00,
2013-07-27 15:14:00,76.5,69.1,29.88,SSW,211,4.0,4.0,78,0.00,,,0.12,WeatherDisplay:10.37,2013-07-27 19:14:00,
2013-07-27 15:19:00,76.4,68.7,29.88,West,261,3.5,3.5,77,0.00,,,0.12,WeatherDisplay:10.37,2013-07-27 19:19:00,
2013-07-27 15:24:00,76.1,68.4,29.88,WNW,292,4.6,4.6,77,0.00,,,0.12,WeatherDisplay:10.37,2013-07-27 19:24:00,
2013-07-27 15:29:00,75.9,68.5,29.88,WSW,257,3.5,3.5,78,0.00,,,0.12,WeatherDisplay:10.37,2013-07-27 19:29:00,
2013-07-27 15:34:00,75.9,68.5,29.88,SW,226,3.5,3.5,78,0.00,,,0.12,WeatherDisplay:10.37,2013-07-27 19:34:00,
2013-07-27 15:39:00,75.8,68.8,29.87,SW,220,3.5,3.5,79,0.00,,,0.12,WeatherDisplay:10.37,2013-07-27 19:39:00,
2013-07-27 15:44:00,75.9,69.3,29.88,West,266,2.3,2.3,80,0.00,,,0.12,WeatherDisplay:10.37,2013-07-27 19:44:00,
2013-07-27 15:49:00,76.1,69.1,29.87,West,259,3.5,3.5,79,0.00,,,0.12,WeatherDisplay:10.37,2013-07-27 19:49:00,
2013-07-27 15:50:00,76.1,69.1,29.87,West,259,3.5,3.5,79,0.00,,,0.12,WeatherDisplay:10.37,2013-07-27 19:50:00,
2013-07-27 15:55:00,76.8,70.5,29.86,WNW,282,2.3,2.3,81,0.00,,,0.12,WeatherDisplay:10.37,2013-07-27 19:55:00,
2013-07-27 16:00:00,77.4,69.6,29.86,WSW,237,5.8,5.8,77,0.00,,,0.12,WeatherDisplay:10.37,2013-07-27 20:00:00,
2013-07-27 16:05:00,77.6,69.4,29.86,WSW,241,3.5,3.5,76,0.00,,,0.12,WeatherDisplay:10.37,2013-07-27 20:05:00,
2013-07-27 16:10:00,78.1,69.5,29.86,SW,231,3.5,3.5,75,0.00,,,0.12,WeatherDisplay:10.37,2013-07-27 20:10:00,
2013-07-27 16:15:00,78.8,70.6,29.86,West,274,2.3,2.3,76,0.00,,,0.12,WeatherDisplay:10.37,2013-07-27 20:15:00,
2013-07-27 16:20:00,79.8,70.0,29.86,West,273,4.6,4.6,72,0.00,,,0.12,WeatherDisplay:10.37,2013-07-27 20:20:00,
2013-07-27 16:25:00,79.4,68.3,29.86,WSW,252,5.8,5.8,69,0.00,,,0.12,WeatherDisplay:10.37,2013-07-27 20:25:00,
2013-07-27 16:30:00,78.7,68.5,29.86,West,261,4.6,4.6,71,0.00,,,0.12,WeatherDisplay:10.37,2013-07-27 20:30:00,
2013-07-27 16:35:00,78.6,68.4,29.85,WNW,300,3.0,3.0,71,0.00,,,0.12,WeatherDisplay:10.37,2013-07-27 20:35:00,
2013-07-27 16:40:00,78.1,67.5,29.85,WSW,249,3.5,3.5,70,0.00,,,0.12,WeatherDisplay:10.37,2013-07-27 20:40:00,
2013-07-27 16:45:00,77.7,68.0,29.85,SE,131,1.2,0.0,72,0.00,,,0.12,WeatherDisplay:10.37,2013-07-27 20:45:00,
2013-07-27 16:50:00,77.2,67.1,29.86,WSW,245,3.0,3.0,71,0.00,,,0.12,WeatherDisplay:10.37,2013-07-27 20:50:00,
2013-07-27 16:55:00,76.6,67.3,29.86,WNW,297,3.5,3.5,73,0.02,RA,,0.16,WeatherDisplay:10.37,2013-07-27 20:55:00,
2013-07-27 17:00:00,74.6,67.7,29.86,NW,326,4.6,4.6,79,0.07,RA,,0.19,WeatherDisplay:10.37,2013-07-27 21:00:00,
2013-07-27 17:05:00,72.4,66.6,29.86,NW,307,11.5,11.5,82,0.15,RA,,0.29,WeatherDisplay:10.37,2013-07-27 21:05:00,
2013-07-27 17:10:00,69.4,63.0,29.86,North,351,11.5,11.5,80,0.32,RA,,0.46,WeatherDisplay:10.37,2013-07-27 21:10:00,
2013-07-27 17:15:00,67.5,63.2,29.86,ENE,74,8.1,8.1,86,0.36,RA,,0.49,WeatherDisplay:10.37,2013-07-27 21:15:00,
2013-07-27 17:20:00,67.0,63.3,29.87,ESE,118,9.2,9.2,88,0.37,RA,,0.49,WeatherDisplay:10.37,2013-07-27 21:20:00,
2013-07-27 17:25:00,66.9,63.9,29.87,SE,130,4.0,4.0,90,0.37,RA,,0.49,WeatherDisplay:10.37,2013-07-27 21:25:00,
2013-07-27 17:30:00,66.9,64.2,29.86,East,91,2.3,2.3,91,0.37,CLR,,0.49,WeatherDisplay:10.37,2013-07-27 21:30:00,
2013-07-27 17:35:00,67.0,64.6,29.86,East,92,0.0,0.0,92,0.37,CLR,,0.49,WeatherDisplay:10.37,2013-07-27 21:35:00,
2013-07-27 17:40:00,67.1,65.0,29.86,SE,141,0.0,0.0,93,0.37,CLR,,0.49,WeatherDisplay:10.37,2013-07-27 21:40:00,
2013-07-27 17:45:00,67.0,64.9,29.86,NW,309,2.3,2.3,93,0.37,CLR,,0.49,WeatherDisplay:10.37,2013-07-27 21:45:00,
2013-07-27 17:50:00,66.9,64.8,29.88,NNW,331,5.0,5.0,93,0.37,CLR,,0.49,WeatherDisplay:10.37,2013-07-27 21:50:00,
2013-07-27 17:55:00,66.9,65.1,29.90,WSW,255,8.0,8.0,94,0.43,RA,,0.58,WeatherDisplay:10.37,2013-07-27 21:55:00,
2013-07-27 18:00:00,66.5,64.4,29.88,SE,140,3.5,3.5,93,0.57,RA,,0.76,WeatherDisplay:10.37,2013-07-27 22:00:00,
2013-07-27 18:05:00,66.3,64.5,29.88,SSE,151,1.2,0.0,94,0.49,RA,,0.76,WeatherDisplay:10.37,2013-07-27 22:05:00,
2013-07-27 18:10:00,66.2,64.4,29.88,WNW,290,0.0,0.0,94,0.32,CLR,,0.76,WeatherDisplay:10.37,2013-07-27 22:10:00,
2013-07-27 18:15:00,66.2,64.7,29.88,WNW,290,0.0,0.0,95,0.28,CLR,,0.76,WeatherDisplay:10.37,2013-07-27 22:15:00,
2013-07-27 18:20:00,66.2,64.4,29.87,SW,231,1.2,1.2,94,0.27,CLR,,0.76,WeatherDisplay:10.37,2013-07-27 22:20:00,
2013-07-27 18:25:00,66.2,64.7,29.88,SW,231,0.0,0.3,95,0.27,CLR,,0.76,WeatherDisplay:10.37,2013-07-27 22:25:00,
2013-07-27 18:30:00,66.2,64.7,29.87,SSE,166,1.2,1.2,95,0.27,CLR,,0.76,WeatherDisplay:10.37,2013-07-27 22:30:00,
2013-07-27 18:35:00,66.4,64.9,29.87,SSE,167,0.0,0.3,95,0.27,CLR,,0.76,WeatherDisplay:10.37,2013-07-27 22:35:00,
2013-07-27 18:40:00,66.3,64.8,29.87,SSE,164,1.2,1.2,95,0.27,CLR,,0.76,WeatherDisplay:10.37,2013-07-27 22:40:00,
2013-07-27 18:45:00,66.5,65.0,29.87,SSE,163,1.2,1.2,95,0.27,CLR,,0.76,WeatherDisplay:10.37,2013-07-27 22:45:00,
2013-07-27 18:50:00,66.9,65.7,29.87,SSE,164,0.0,0.0,96,0.27,CLR,,0.76,WeatherDisplay:10.37,2013-07-27 22:50:00,
2013-07-27 18:56:00,67.3,65.8,29.87,SSE,163,0.0,0.0,95,0.19,CLR,,0.76,WeatherDisplay:10.37,2013-07-27 22:56:00,
2013-07-27 19:01:00,67.9,66.7,29.87,SSE,164,1.2,1.2,96,0.00,CLR,,0.76,WeatherDisplay:10.37,2013-07-27 23:01:00,
2013-07-27 19:06:00,68.3,66.8,29.87,SSE,163,1.2,1.2,95,0.00,CLR,,0.76,WeatherDisplay:10.37,2013-07-27 23:06:00,
2013-07-27 19:11:00,68.5,66.7,29.87,SSE,165,0.0,0.0,94,0.00,CLR,,0.76,WeatherDisplay:10.37,2013-07-27 23:11:00,
2013-07-27 19:16:00,68.7,66.9,29.87,South,177,0.0,0.0,94,0.00,CLR,,0.76,WeatherDisplay:10.37,2013-07-27 23:16:00,
2013-07-27 19:21:00,68.4,66.0,29.87,South,173,2.3,0.0,92,0.00,CLR,,0.76,WeatherDisplay:10.37,2013-07-27 23:21:00,
2013-07-27 19:26:00,68.5,66.4,29.88,South,173,0.0,0.0,93,0.00,CLR,,0.76,WeatherDisplay:10.37,2013-07-27 23:26:00,
2013-07-27 19:31:00,68.4,66.3,29.87,South,174,0.0,0.0,93,0.00,CLR,,0.76,WeatherDisplay:10.37,2013-07-27 23:31:00,
2013-07-27 19:36:00,68.6,66.5,29.88,South,173,0.0,0.0,93,0.00,CLR,,0.76,WeatherDisplay:10.37,2013-07-27 23:36:00,
2013-07-27 19:41:00,68.6,66.5,29.88,South,175,0.0,0.0,93,0.00,CLR,,0.76,WeatherDisplay:10.37,2013-07-27 23:41:00,
2013-07-27 19:46:00,68.4,66.0,29.88,South,175,0.0,0.0,92,0.00,CLR,,0.76,WeatherDisplay:10.37,2013-07-27 23:46:00,
2013-07-27 19:51:00,68.4,66.3,29.88,South,175,0.0,0.0,93,0.00,CLR,,0.76,WeatherDisplay:10.37,2013-07-27 23:51:00,
2013-07-27 19:56:00,68.3,66.2,29.88,South,175,0.0,0.0,93,0.00,CLR,,0.76,WeatherDisplay:10.37,2013-07-27 23:56:00,
2013-07-27 20:01:00,68.1,66.3,29.88,South,175,0.0,0.0,94,0.00,CLR,,0.76,WeatherDisplay:10.37,2013-07-28 00:01:00,
2013-07-27 20:06:00,68.0,66.2,29.88,South,175,0.0,0.0,94,0.00,CLR,,0.76,WeatherDisplay:10.37,2013-07-28 00:06:00,
2013-07-27 20:11:00,67.9,66.1,29.88,South,174,0.0,0.0,94,0.00,CLR,,0.76,WeatherDisplay:10.37,2013-07-28 00:11:00,
2013-07-27 20:16:00,67.8,66.0,29.88,South,175,1.2,1.2,94,0.00,CLR,,0.76,WeatherDisplay:10.37,2013-07-28 00:16:00,
2013-07-27 20:21:00,67.6,66.1,29.88,South,175,0.0,0.0,95,0.00,CLR,,0.76,WeatherDisplay:10.37,2013-07-28 00:21:00,
2013-07-27 20:26:00,67.4,65.9,29.88,South,175,0.0,0.0,95,0.00,CLR,,0.76,WeatherDisplay:10.37,2013-07-28 00:26:00,
2013-07-27 20:31:00,67.3,65.8,29.88,South,175,0.0,0.0,95,0.00,CLR,,0.76,WeatherDisplay:10.37,2013-07-28 00:31:00,
2013-07-27 20:36:00,67.1,65.9,29.89,South,175,0.0,0.0,96,0.00,CLR,,0.76,WeatherDisplay:10.37,2013-07-28 00:36:00,
2013-07-27 20:41:00,66.8,65.3,29.88,South,175,1.2,1.2,95,0.00,CLR,,0.76,WeatherDisplay:10.37,2013-07-28 00:41:00,
2013-07-27 20:47:00,66.5,65.3,29.88,South,175,0.0,0.0,96,0.00,CLR,,0.76,WeatherDisplay:10.37,2013-07-28 00:47:00,
2013-07-27 20:52:00,66.3,65.1,29.89,South,175,1.2,0.0,96,0.00,CLR,,0.76,WeatherDisplay:10.37,2013-07-28 00:52:00,
2013-07-27 20:57:00,66.1,64.9,29.89,South,175,1.2,0.0,96,0.00,CLR,,0.76,WeatherDisplay:10.37,2013-07-28 00:57:00,
2013-07-27 21:02:00,65.9,64.7,29.89,South,175,0.0,0.0,96,0.00,,,0.76,WeatherDisplay:10.37,2013-07-28 01:02:00,
2013-07-27 21:07:00,65.7,64.5,29.89,South,175,0.0,0.0,96,0.00,,,0.76,WeatherDisplay:10.37,2013-07-28 01:07:00,
2013-07-27 21:12:00,65.7,64.8,29.89,South,174,0.0,0.0,97,0.00,,,0.76,WeatherDisplay:10.37,2013-07-28 01:12:00,
2013-07-27 21:17:00,65.6,64.7,29.89,South,175,0.0,0.0,97,0.00,,,0.76,WeatherDisplay:10.37,2013-07-28 01:17:00,
2013-07-27 21:22:00,65.5,64.6,29.89,South,175,1.2,1.2,97,0.00,,,0.76,WeatherDisplay:10.37,2013-07-28 01:22:00,
2013-07-27 21:27:00,65.5,64.6,29.89,South,175,0.0,0.0,97,0.00,,,0.76,WeatherDisplay:10.37,2013-07-28 01:27:00,
2013-07-27 21:32:00,65.5,64.6,29.89,South,175,1.2,1.2,97,0.00,,,0.76,WeatherDisplay:10.37,2013-07-28 01:32:00,
2013-07-27 21:37:00,65.5,64.6,29.89,South,174,0.0,0.0,97,0.00,,,0.76,WeatherDisplay:10.37,2013-07-28 01:37:00,
2013-07-27 21:42:00,65.4,64.5,29.89,South,175,0.0,0.0,97,0.00,,,0.76,WeatherDisplay:10.37,2013-07-28 01:42:00,
2013-07-27 21:47:00,65.4,64.5,29.90,South,174,0.0,0.0,97,0.00,,,0.76,WeatherDisplay:10.37,2013-07-28 01:47:00,
2013-07-27 21:52:00,65.3,64.4,29.90,South,174,0.0,0.0,97,0.00,,,0.76,WeatherDisplay:10.37,2013-07-28 01:52:00,
2013-07-27 21:57:00,65.1,64.2,29.90,South,175,0.0,0.0,97,0.00,,,0.76,WeatherDisplay:10.37,2013-07-28 01:57:00,
2013-07-27 22:02:00,65.0,64.1,29.91,South,175,0.0,0.0,97,0.00,,,0.76,WeatherDisplay:10.37,2013-07-28 02:02:00,
2013-07-27 22:07:00,65.0,64.1,29.91,South,175,0.0,0.0,97,0.00,,,0.76,WeatherDisplay:10.37,2013-07-28 02:07:00,
2013-07-27 22:12:00,65.0,64.1,29.90,South,175,0.0,0.0,97,0.00,,,0.76,WeatherDisplay:10.37,2013-07-28 02:12:00,
2013-07-27 22:17:00,64.8,63.9,29.91,South,174,0.0,0.0,97,0.00,,,0.76,WeatherDisplay:10.37,2013-07-28 02:17:00,
2013-07-27 22:22:00,64.7,63.8,29.90,South,175,0.0,0.0,97,0.00,,,0.76,WeatherDisplay:10.37,2013-07-28 02:22:00,
2013-07-27 22:27:00,64.6,63.7,29.90,South,175,0.0,0.0,97,0.00,,,0.76,WeatherDisplay:10.37,2013-07-28 02:27:00,
2013-07-27 22:32:00,64.5,63.9,29.90,South,175,0.0,0.0,98,0.00,,,0.76,WeatherDisplay:10.37,2013-07-28 02:32:00,
2013-07-27 22:37:00,64.6,64.0,29.90,South,175,0.0,0.0,98,0.00,,,0.76,WeatherDisplay:10.37,2013-07-28 02:37:00,
2013-07-27 22:42:00,64.7,64.1,29.90,South,175,0.0,0.0,98,0.00,,,0.76,WeatherDisplay:10.37,2013-07-28 02:42:00,
2013-07-27 22:47:00,64.8,64.2,29.90,South,175,0.0,0.0,98,0.00,,,0.76,WeatherDisplay:10.37,2013-07-28 02:47:00,
2013-07-27 22:52:00,64.9,64.3,29.90,South,175,0.0,0.0,98,0.00,,,0.76,WeatherDisplay:10.37,2013-07-28 02:52:00,
2013-07-27 22:57:00,65.0,64.4,29.90,South,175,0.0,0.0,98,0.00,,,0.76,WeatherDisplay:10.37,2013-07-28 02:57:00,
2013-07-27 23:02:00,65.1,64.5,29.90,South,175,0.0,0.0,98,0.00,,,0.76,WeatherDisplay:10.37,2013-07-28 03:02:00,
2013-07-27 23:07:00,65.1,64.5,29.90,South,175,0.0,0.0,98,0.00,,,0.76,WeatherDisplay:10.37,2013-07-28 03:07:00,
2013-07-27 23:12:00,65.2,64.6,29.90,South,175,0.0,0.0,98,0.00,,,0.76,WeatherDisplay:10.37,2013-07-28 03:12:00,
2013-07-27 23:17:00,65.2,64.6,29.90,South,175,0.0,0.0,98,0.00,,,0.76,WeatherDisplay:10.37,2013-07-28 03:17:00,
2013-07-27 23:22:00,65.2,64.6,29.90,South,175,0.0,0.0,98,0.00,,,0.76,WeatherDisplay:10.37,2013-07-28 03:22:00,
2013-07-27 23:27:00,65.2,64.6,29.90,South,175,0.0,0.0,98,0.00,,,0.76,WeatherDisplay:10.37,2013-07-28 03:27:00,
2013-07-27 23:33:00,65.3,64.7,29.90,South,175,0.0,0.0,98,0.00,,,0.76,WeatherDisplay:10.37,2013-07-28 03:33:00,
2013-07-27 23:38:00,65.2,64.6,29.89,South,175,0.0,0.0,98,0.00,,,0.76,WeatherDisplay:10.37,2013-07-28 03:38:00,
2013-07-27 23:43:00,65.3,64.7,29.90,South,175,0.0,0.0,98,0.00,,,0.76,WeatherDisplay:10.37,2013-07-28 03:43:00,
2013-07-27 23:48:00,65.3,64.7,29.89,South,175,0.0,0.0,98,0.00,,,0.76,WeatherDisplay:10.37,2013-07-28 03:48:00,
2013-07-27 23:53:00,65.3,64.7,29.89,South,174,0.0,0.0,98,0.00,,,0.76,WeatherDisplay:10.37,2013-07-28 03:53:00,
2013-07-27 23:58:00,65.4,64.8,29.89,South,174,0.0,0.0,98,0.00,,,0.76,WeatherDisplay:10.37,2013-07-28 03:58:00,